Weather in Kirovskoye vodokhranilishche

Kyrgyzstan     42°38′07″N   71°38′26″E
temp.,
°C
wind,
m/s
gust,
m/s
humid.,
%
clouds,
%
prec.,
mm/h
press.,
hPa
HPBL,
m
12 august, fri
fri1200:00+17e22440 0.1 101311
03:00+15e11490 0.0 101311
06:00+14ese22520 0.0 101412
09:00+20nnw12380 0.0 1014594
12:00+25nnw33300 0.0 10111488
15:00+28n43240 0.0 10092232
18:00+27nne76250 0.0 10091928
21:00+21ne34370 0.0 101169
13 august, sat
sat1300:00+19e22410 0.0 101121
03:00+17ene22470 0.0 101117
06:00+16e11490 0.0 101113
09:00+22nw12340 0.0 1012513
12:00+27nw33260 0.0 10101451
15:00+30n33210 0.0 10082091
18:00+29ne55220 0.0 10071852
21:00+22ene44340 0.0 100957
14 august, sun
sun1400:00+20e33380 0.0 100926
03:00+18e11440 0.0 100815
06:00+16nne11480 0.0 100811
09:00+23nw11320 0.0 1008343
12:00+30nw33220 0.0 10061239
15:00+33nw23170 0.0 10041986
18:00+32ne43160 0.0 10032013
21:00+25ene44240 0.0 100545
15 august, mon
mon1500:00+23ese22290 0.0 100514
03:00+19wsw01370 0.0 100511
06:00+18se01390 0.0 100611
09:00+24nw11270 0.0 1006318
12:00+30nw43190 0.0 10051228
15:00+33nnw44154 0.0 10032192
18:00+32nne54161 0.0 10032224
21:00+25ene44240 0.0 100546
16 august, tue
tue1600:00+22ene33280 0.0 100531
03:00+18ssw11370 0.0 100712
06:00+17se22400 0.0 100814
09:00+23nw11300 0.0 1008401
12:00+28nw44210 0.0 10071270
15:00+30nnw44180 0.0 10051887
18:00+29nne65180 0.0 10061714
21:00+21ene44260 0.0 100867